Flag for Mexico Weather past 2 weeks in Puerto Vallarta, Jalisco, Mexico

Now
77 °F

Mostly cloudy.


Feels Like: 78 °F
Forecast: 77 / 89 °F
Wind: 6 mph from Northeast

Location: Puerto Vallarta / Lic

Current Time: Sep 1, 2015 at 9:51:00 AM

Latest Report: Sep 1, 2015 at 8:45 AM


Visibility: 15 mi

Pressure: 29.90 "Hg

Humidity: 89%

Dew point: 73 °F

Location of Puerto VallartaLocation

Historic Weather in Puerto Vallarta — Graph

°F

Puerto Vallarta temperature yesterday

Maximum temperature yesterday: 90 °F (at 5:50 PM)
Minimum temperature yesterday: 73 °F (at 8:54 AM)
Average temperature yesterday: 81 °F

Past Weeks' High & Low Weather Summary

 TemperatureHumidityPressure
High93 °F (Aug 22, 4:45 PM)100% (Aug 29, 6:48 AM)29.97 "Hg (Aug 29, 6:48 AM)
Low73 °F (Aug 31, 8:54 AM)56% (Aug 19, 1:45 PM)29.78 "Hg (Aug 28, 7:46 PM)
Average83 °F80%29.87 "Hg
* Reported Aug 17 10:45 AM — Sep 1 8:45 AM, Puerto Vallarta, Weather by CustomWeather, © 2015

Note: Actual official high and low records may vary slightly from our data, if they occured in-between our weather recording intervals... More about our weather records

Advertising

Puerto Vallarta weather history for previous 24 hours

 ConditionsComfort  
Time TempWeatherWind HumidityBarometerVisibility
8:45 AM
Tue, Sep 1
77 °FMostly cloudy.6 mph89%29.90 "Hg15 mi
7:49 AM75 °FOvercast.3 mph94%29.89 "Hg15 mi
6:47 AM75 °FPassing clouds.5 mph94%29.88 "Hg12 mi
5:49 AM77 °FPassing clouds.5 mph94%29.88 "Hg12 mi
4:51 AM77 °FPassing clouds.7 mph94%29.88 "Hg12 mi
3:45 AM77 °FPassing clouds.5 mph94%29.88 "Hg12 mi
11:52 PM
Mon, Aug 31
79 °FPassing clouds.No wind89%29.88 "Hg12 mi
10:45 PM81 °FPassing clouds.No wind89%29.86 "Hg13 mi
6:50 PM86 °FPartly sunny.6 mph70%29.85 "Hg15 mi
5:50 PM90 °FPartly sunny.No wind63%29.86 "Hg15 mi
4:49 PM86 °FPartly sunny.5 mph70%29.87 "Hg15 mi
3:47 PM88 °FBroken clouds.5 mph70%29.88 "Hg15 mi
2:51 PM84 °FBroken clouds.No wind79%29.92 "Hg15 mi
1:47 PM84 °FMore clouds than sun.3 mph70%29.93 "Hg15 mi
12:52 PM82 °FMore clouds than sun.No wind79%29.95 "Hg15 mi
11:49 AM79 °FMore clouds than sun.No wind89%29.97 "Hg15 mi
10:49 AM77 °FMostly cloudy.6 mph94%29.96 "Hg15 mi
Weather by CustomWeather, © 2015

See weather overviewHow to use our weather pages